User: anonymous   Login
Location: Caltech
(34.1382°N, 118.1253°W)
Time: 00:43:28
(UTC-07:00)
Language:

Cosmos-2242 - Orbit

View from above orbital plane
View from above orbital plane
View from above satellite
View from above satellite

Ground track
Ground track

The orbit data is extracted from the following two-line orbital elements,

1 22626U 93024A   16149.77959081  .00000301  00000-0  30493-4 0  9990
2 22626  82.5238  44.1556 0018152 320.6936  39.2962 14.87457361249001
Epoch (UTC): 28 May 2016 18:42:36
Eccentricity: 0.0018152
inclination: 82.5238°
perigee height: 593 km
apogee height: 618 km
right ascension of ascending node: 44.1556°
argument of perigee: 320.6936°
revolutions per day: 14.87457361
mean anomaly at epoch: 39.2962°
orbit number at epoch: 24900

The dashed part of the orbit path shows where the satellite is in the earth's shadow,  

DLR